Weather History for KSUS - August, 2013

Change the Weather History Date:

Monday, August 26, 2013

  Actual Average (KSTL) Record (KSTL)
Temperature  
Mean Temperature 83 °F 78 °F  
Max Temperature 96 °F 87 °F 103 °F (1936)
Min Temperature 71 °F 68 °F 53 °F (1934)
Degree Days  
Heating Degree Days 0 0  
Month to date heating degree days 0  
Since 1 June heating degree days 5  
Since 1 July heating degree days 0  
Cooling Degree Days 18 13  
Month to date cooling degree days 366  
Year to date cooling degree days 1341  
Since 1 June cooling degree days 1167  
Growing Degree Days 33 (Base 50)    
Moisture  
Dew Point 70 °F    
Average Humidity 69    
Maximum Humidity 93    
Minimum Humidity 36    
Precipitation  
Precipitation 0.00 in 0.09 in 2.46 in (1888)
Month to date precipitation 2.53  
Year to date precipitation 27.29  
Snow  
Snow 0.00 in 0.00 in 0.00 in (2013)
Month to date snowfall 0.0  
Since 1 June snowfall 0.0  
Since 1 July snowfall 0.0  
Snow Depth -    
Sea Level Pressure  
Sea Level Pressure 30.11 in    
Wind  
Wind Speed 3 mph (SW)    
Max Wind Speed 10 mph    
Max Gust Speed -    
Visibility 8 miles    
Events      
T = Trace of Precipitation, MM = Missing Value Source: NWS Daily Summary

Daily Weather History Graph

Daily Weather History Graph

Search for Another Location

Airport or City:

Trip Planner

Search our weather history database for the weather conditions in past years. The results will help you decide how hot, cold, wet, or windy it might be!

Date:

Astronomy

Aug. 26, 2013 Rise Set
Actual Time 6:26 AM CDT 7:41 PM CDT
Civil Twilight 5:59 AM CDT 8:08 PM CDT
Nautical Twilight 5:26 AM CDT 8:41 PM CDT
Astronomical Twilight 4:51 AM CDT 9:15 PM CDT
Moon 10:56 PM CDT (8/26) 12:23 PM CDT (8/26)
Length of Visible Light 14h 09m
Length of Day
13h 14m
Waning Gibbous, 66% of the Moon is Illuminated
Aug 26
Waning Gibbous
Aug 28
Last Quarter
Sep 5
New
Sep 12
First Quarter
Sep 19
Full

Hourly Weather History & Observations

Time (CDT) Temp. Heat Index Dew Point Humidity Pressure Visibility Wind Dir Wind Speed Gust Speed Precip Events Conditions
12:54 AM 77.0 °F - 70.0 °F 79% 30.16 in 9.0 mi SSW 4.6 mph - N/A   Clear
1:54 AM 75.0 °F - 70.0 °F 84% 30.15 in 7.0 mi Calm Calm - N/A   Scattered Clouds
2:54 AM 73.0 °F - 69.1 °F 87% 30.16 in 7.0 mi Calm Calm - N/A   Partly Cloudy
3:54 AM 72.0 °F - 70.0 °F 93% 30.15 in 5.0 mi Calm Calm - N/A   Partly Cloudy
4:54 AM 72.0 °F - 69.1 °F 91% 30.15 in 5.0 mi Calm Calm - N/A   Clear
5:54 AM 71.1 °F - 69.1 °F 93% 30.16 in 4.0 mi Calm Calm - N/A   Clear
6:54 AM 72.0 °F - 70.0 °F 93% 30.17 in 4.0 mi Calm Calm - N/A   Scattered Clouds
7:54 AM 75.9 °F - 72.0 °F 87% 30.19 in 4.0 mi SW 5.8 mph - N/A   Clear
8:54 AM 79.0 °F - 73.0 °F 82% 30.19 in 7.0 mi SW 8.1 mph - N/A   Clear
9:54 AM 82.9 °F 88.8 °F 73.0 °F 72% 30.18 in 10.0 mi WSW 8.1 mph - N/A   Clear
10:54 AM 86.0 °F 92.2 °F 72.0 °F 63% 30.17 in 10.0 mi West 6.9 mph - N/A   Partly Cloudy
11:54 AM 88.0 °F 95.6 °F 73.0 °F 61% 30.16 in 10.0 mi SW 10.4 mph - N/A   Scattered Clouds
12:54 PM 90.0 °F 96.9 °F 72.0 °F 55% 30.14 in 10.0 mi Variable 5.8 mph - N/A   Scattered Clouds
1:54 PM 91.0 °F 95.6 °F 69.1 °F 48% 30.11 in 10.0 mi Calm Calm - N/A   Clear
2:54 PM 93.9 °F 97.0 °F 66.0 °F 40% 30.09 in 10.0 mi SW 5.8 mph - N/A   Scattered Clouds
3:54 PM 95.0 °F 97.0 °F 64.0 °F 36% 30.06 in 10.0 mi Variable 4.6 mph - N/A   Clear
4:54 PM 93.9 °F 98.6 °F 68.0 °F 43% 30.05 in 10.0 mi SW 8.1 mph - N/A   Scattered Clouds
5:54 PM 91.9 °F 96.9 °F 69.1 °F 47% 30.05 in 10.0 mi WSW 5.8 mph - N/A   Mostly Cloudy
6:54 PM 88.0 °F 92.9 °F 70.0 °F 55% 30.04 in 10.0 mi SW 4.6 mph - N/A   Mostly Cloudy
7:54 PM 84.9 °F 88.8 °F 69.1 °F 59% 30.04 in 10.0 mi SW 3.5 mph - N/A   Mostly Cloudy
8:54 PM 84.0 °F 87.8 °F 69.1 °F 61% 30.04 in 10.0 mi SSW 8.1 mph - N/A   Clear
9:54 PM 80.1 °F 83.2 °F 70.0 °F 71% 30.04 in 10.0 mi Calm Calm - N/A   Clear
10:54 PM 78.1 °F - 70.0 °F 76% 30.04 in 10.0 mi Calm Calm - N/A   Clear
11:54 PM 78.1 °F - 70.0 °F 76% 30.06 in 10.0 mi Calm Calm - N/A   Clear